Location: Newark
(42.0333°N, 13.0667°E)
Time: 03:28:44
(UTC+00:00)

ISS - Pass Details

Date: 21 November 2019
Orbit: 411 x 421 km, 51.6° (Epoch: 14 December)

Event Time Altitude Azimuth Distance (km) Brightness Sun altitude
Rises 16:35:33 0° 189° (S) 2,339 0.4 -10.0°
Reaches altitude 10° 16:38:26 10° 161° (SSE) 1,485 -1.0 -10.5°
Maximum altitude 16:40:08 13° 130° (SE) 1,296 -1.6 -10.8°
Enters shadow 16:41:14 12° 109° (ESE) 1,381 -1.6 -11.0°
